Find Local Weather

World > North America > United States > Alabama

Huntsville, Alabama Regional Weather

Lat: 34.71N, Lon: 86.63W
Wx Zone: ALZ006
Warning FLW WEATHER ALERT - (More Info. Click Here) Warning
Feedback
Expires:201809261500;;240767
ASUS44 KBMX 261410
RWRAL 
             
ALABAMA REGIONAL WEATHER ROUNDUP
NATIONAL WEATHER SERVICE BIRMINGHAM AL
900 AM CDT WED SEP 26 2018

NOTE: "FAIR" INDICATES FEW OR NO CLOUDS BELOW 12,000 FEET
WITH NO SIGNIFICANT WEATHER AND/OR OBSTRUCTIONS TO VISIBILITY.

THE REMARK "TC" DENOTES TEMPERATURE IN DEGREES CELSIUS.


ALZ001>011-014-016>018-020-261500-
NORTH ALABAMA
  
CITY           SKY/WX    TMP DP  RH WIND       PRES   REMARKS
MUSCLE SHOALS  RAIN      72  71  97 VRB3      30.06R FOG              
HUNTSVILLE     HVY RAIN  72  72 100 W5        30.09R FOG              
DECATUR        HVY RAIN  71  71 100 NW8       30.10R VSB 1            
HALEYVILLE     TSTM      70  69  97 CALM      30.09S FOG              
GADSDEN        CLOUDY    77  75  94 S6        30.08S                  
$$
 

SKY/WX - Weather  TMP - Temperature  DP - Dew Point  RH - Relative Humidity
WIND - Wind Direction/Speed PRES - Barometric Pressure